Change the Weather History Date:

Monday, November 4, 2013

  Actual Average Record
Temperature  
Mean Temperature 50 °F -  
Max Temperature 54 °F 47 °F 64 °F (2011)
Min Temperature 45 °F 38 °F 35 °F (1997)
Degree Days  
Heating Degree Days 16    
Moisture  
Dew Point 45 °F    
Average Humidity 87    
Maximum Humidity 100    
Minimum Humidity 60    
Precipitation  
Precipitation 0.51 in - - ()
Sea Level Pressure  
Sea Level Pressure 29.17 in    
Wind  
Wind Speed 13 mph ()    
Max Wind Speed 24 mph    
Max Gust Speed 34 mph    
Visibility 6.5 miles    
Events Rain    
Averages and records for this station are not official NWS values.
T = Trace of Precipitation, MM = Missing Value Source: Averaged Metar Reports

Daily Weather History Graph

Daily Weather History Graph

Search for Another Location

Airport or City:

Trip Planner

Search our weather history database for the weather conditions in past years. The results will help you decide how hot, cold, wet, or windy it might be!

Date:

Astronomy

Nov. 04, 2013 Rise Set
Actual Time 7:42 AM CET 5:08 PM CET
Civil Twilight 7:06 AM CET 5:44 PM CET
Nautical Twilight 6:26 AM CET 6:24 PM CET
Astronomical Twilight 5:47 AM CET 7:03 PM CET
Moon 8:42 AM CET (11/4) 5:51 PM CET (11/4)
Length of Visible Light 10h 37m
Length of Day
9h 25m
New Moon, 1% of the Moon is Illuminated
Nov 4
New Moon
Nov 10
First Quarter
Nov 17
Full
Nov 25
Last Quarter
Dec 3
New

Hourly Weather History & Observations

Time (CET) Temp. Windchill Dew Point Humidity Pressure Visibility Wind Dir Wind Speed Gust Speed Precip Events Conditions
12:25 AM 46.4 °F 40.7 °F 44.6 °F 93% 29.39 in 6.2 mi South 12.7 mph - N/A   Light Drizzle
12:55 AM 46.4 °F 40.7 °F 44.6 °F 93% 29.36 in 6.2 mi South 12.7 mph - N/A   Light Drizzle
1:00 AM 47 °F - 44 °F 86% 29.36 in 9 mi South 13.4 mph - - Rain Heavy Drizzle
1:25 AM 46.4 °F 40.7 °F 44.6 °F 93% 29.33 in 6.2 mi South 12.7 mph - N/A   Heavy Drizzle
1:55 AM 46.4 °F 41.1 °F 44.6 °F 93% 29.27 in 6.2 mi SSE 11.5 mph - N/A Rain Light Rain
2:25 AM 46.4 °F 40.4 °F 44.6 °F 93% 29.24 in 6.2 mi SE 13.8 mph - N/A Rain Light Rain Showers
2:55 AM 46.4 °F 40.4 °F 44.6 °F 93% 29.18 in 5.0 mi SE 13.8 mph - N/A Rain Light Rain
3:25 AM 46.4 °F 39.8 °F 44.6 °F 93% 29.12 in 4.3 mi SE 16.1 mph - N/A Rain Rain Showers
3:55 AM 46.4 °F 39.8 °F 44.6 °F 93% 29.06 in - ESE 16.1 mph - N/A Rain Light Rain
4:00 AM 46 °F - 46 °F 97% 29.06 in 3 mi ESE 13.4 mph - - Rain Rain
4:25 AM 46.4 °F 39.8 °F 46.4 °F 100% 29.03 in 3.1 mi SE 16.1 mph - N/A Rain Light Rain
4:55 AM 50.0 °F - 48.2 °F 94% 29.00 in 6.2 mi South 15.0 mph - N/A Rain Light Rain
5:25 AM 51.8 °F - 50.0 °F 94% 28.97 in 6.2 mi SSW 21.9 mph - N/A   Overcast
5:55 AM 53.6 °F - 50.0 °F 88% 28.94 in 6.2 mi SSW 21.9 mph 33.4 mph N/A   Overcast
6:25 AM 53.6 °F - 51.8 °F 94% 28.94 in 6.2 mi SSW 24.2 mph - N/A   Overcast
6:55 AM 53.6 °F - 51.8 °F 94% 28.94 in 6.2 mi SSW 23.0 mph 34.5 mph N/A   Overcast
7:00 AM 54 °F - 51 °F 88% 28.95 in 14 mi SSW 20.1 mph - - Rain Rain
7:25 AM 53.6 °F - 51.8 °F 94% 28.94 in 5.6 mi SSW 19.6 mph 31.1 mph N/A Rain Light Rain
7:55 AM 53.6 °F - 51.8 °F 94% 28.94 in 3.7 mi SSW 21.9 mph - N/A Rain Rain Showers
8:25 AM 53.6 °F - 51.8 °F 94% 28.94 in 6.2 mi SW 18.4 mph - N/A Rain Light Rain
8:55 AM 51.8 °F - 50.0 °F 94% 28.97 in 6.2 mi West 11.5 mph - N/A Rain Light Rain
9:25 AM 48.2 °F - 46.4 °F 93% 29.00 in 5.6 mi North 13.8 mph - N/A Rain Light Rain Showers
9:55 AM 46.4 °F 40.7 °F 46.4 °F 100% 29.00 in 3.7 mi North 12.7 mph - N/A Rain Rain Showers
10:00 AM 47 °F - 45 °F 92% 29.02 in 5 mi North 11.2 mph - - Rain Heavy Rain
10:25 AM 46.4 °F 42.9 °F 44.6 °F 93% 29.03 in 6.2 mi NE 6.9 mph - N/A Rain Light Rain
10:55 AM 46.4 °F 41.5 °F 44.6 °F 93% 29.03 in 6.2 mi North 10.4 mph - N/A Rain Rain Showers
11:25 AM 46.4 °F 41.5 °F 44.6 °F 93% 29.03 in 6.2 mi North 10.4 mph - N/A Rain Light Rain
11:55 AM 46.4 °F 41.1 °F 44.6 °F 93% 29.06 in 6.2 mi North 11.5 mph - N/A Rain Light Drizzle
12:25 PM 48.2 °F - 42.8 °F 82% 29.09 in 6.2 mi North 11.5 mph - N/A   Overcast
12:55 PM 48.2 °F - 42.8 °F 82% 29.09 in 6.2 mi North 9.2 mph - N/A   Scattered Clouds
1:00 PM 48 °F - 42 °F 72% 29.12 in 22 mi North 11.2 mph - - Rain Drizzle
1:25 PM 48.2 °F - 42.8 °F 82% 29.12 in 6.2 mi North 8.1 mph - N/A Rain Light Rain
1:55 PM 48.2 °F - 44.6 °F 87% 29.12 in 6.2 mi NNW 6.9 mph - N/A Rain Drizzle
2:25 PM 48.2 °F - 42.8 °F 82% 29.15 in 6.2 mi NNW 9.2 mph - N/A Rain Light Rain
2:55 PM 48.2 °F - 44.6 °F 87% 29.15 in 6.2 mi North 8.1 mph - N/A   Scattered Clouds
3:25 PM 50.0 °F - 39.2 °F 66% 29.18 in 6.2 mi NW 15.0 mph - N/A   Partly Cloudy
3:55 PM 50.0 °F - 39.2 °F 66% 29.21 in 6.2 mi WNW 11.5 mph - N/A   Scattered Clouds
4:00 PM 48 °F - 38 °F 60% 29.23 in 22 mi NW 13.4 mph - -   Partly Cloudy
4:25 PM 48.2 °F - 37.4 °F 66% 29.21 in 6.2 mi NW 13.8 mph - N/A   Unknown
4:55 PM 46.4 °F 41.9 °F 37.4 °F 71% 29.24 in 6.2 mi WNW 9.2 mph - N/A   Partly Cloudy
5:25 PM 46.4 °F 42.4 °F 37.4 °F 71% 29.24 in 6.2 mi WNW 8.1 mph - N/A   Partly Cloudy
5:55 PM 46.4 °F 41.9 °F 39.2 °F 76% 29.27 in 6.2 mi West 9.2 mph - N/A   Scattered Clouds
6:25 PM 48.2 °F - 41.0 °F 76% 29.30 in 6.2 mi West 17.3 mph - N/A Rain Light Rain
6:55 PM 48.2 °F - 42.8 °F 82% 29.30 in 6.2 mi West 12.7 mph - N/A   Mostly Cloudy
7:00 PM 48 °F - 42 °F 74% 29.32 in 16 mi West 13.4 mph - - Rain Rain
7:25 PM 48.2 °F - 42.8 °F 82% 29.30 in 6.2 mi West 12.7 mph - N/A Rain Light Rain
7:55 PM 46.4 °F 40.1 °F 44.6 °F 93% 29.33 in 6.2 mi West 15.0 mph - N/A   Light Drizzle
8:25 PM 48.2 °F - 44.6 °F 87% 29.33 in 6.2 mi WNW 13.8 mph - N/A Rain Light Rain
8:55 PM 48.2 °F - 44.6 °F 87% 29.36 in 6.2 mi West 11.5 mph - N/A   Mostly Cloudy
9:25 PM 48.2 °F - 42.8 °F 82% 29.36 in 6.2 mi WNW 13.8 mph - N/A Rain Light Rain
9:55 PM 46.4 °F 41.5 °F 44.6 °F 93% 29.36 in 6.2 mi NW 10.4 mph - N/A Rain Light Rain Showers
10:00 PM 47 °F - 44 °F 85% 29.40 in 16 mi WNW 8.9 mph - - Rain Light Rain Showers
10:25 PM 46.4 °F 43.5 °F 44.6 °F 93% 29.39 in 6.2 mi WNW 5.8 mph - N/A   Scattered Clouds
10:55 PM 46.4 °F 43.5 °F 44.6 °F 93% 29.39 in 6.2 mi West 5.8 mph - N/A   Scattered Clouds
11:25 PM 48.2 °F - 42.8 °F 82% 29.39 in 6.2 mi West 11.5 mph - N/A Rain Light Rain
11:55 PM 46.4 °F 44.3 °F 44.6 °F 93% 29.42 in 6.2 mi West 4.6 mph - N/A   Mostly Cloudy